AB4KY Weather Reports


Display with metric or nautical units.
time (UTC)temp
F
wind
direction
speed
MPH
gust
MPH
rain 1hr
in
rain 24hr
in
rain mn
in
humidity
%
barometer
mb
20260503203714 63 304 0.0 6.0 0.00 0.00 0.00 40 1013.4
20260503203211 63 261 2.0 5.0 0.00 0.00 0.00 40 1013.6
20260503202708 64 18 1.0 7.0 0.00 0.00 0.00 37 1013.5
20260503202206 64 156 8.0 8.0 0.00 0.00 0.00 38 1013.5
20260503201704 64 111 0.0 7.0 0.00 0.00 0.00 41 1013.4
20260503201201 65 53 2.0 4.0 0.00 0.00 0.00 37 1013.7
20260503200657 65 66 2.0 6.0 0.00 0.00 0.00 41 1014.2
20260503200154 64 180 2.0 9.0 0.00 0.00 0.00 38 1014.0
20260503195651 63 0 1.0 10.0 0.00 0.00 0.00 39 1013.8
20260503195148 63 209 3.0 7.0 0.00 0.00 0.00 37 1014.1
20260503194645 64 207 5.0 7.0 0.00 0.00 0.00 36 1014.2
20260503194140 64 214 5.0 5.0 0.00 0.00 0.00 40 1014.5
20260503193637 64 5 0.0 5.0 0.00 0.00 0.00 39 1014.8
20260503193132 65 186 3.0 5.0 0.00 0.00 0.00 35 1014.8
20260503192628 64 257 1.0 5.0 0.00 0.00 0.00 39 1014.7
20260503192124 64 188 5.0 5.0 0.00 0.00 0.00 38 1014.7
20260503191621 64 8 7.0 8.0 0.00 0.00 0.00 38 1015.1
20260503191118 64 147 2.0 7.0 0.00 0.00 0.00 41 1015.0
20260503190615 65 236 2.0 4.0 0.00 0.00 0.00 39 1015.1
20260503190112 64 214 4.0 11.0 0.00 0.00 0.00 40 1015.3
20260503185609 64 231 3.0 5.0 0.00 0.00 0.00 41 1015.5
20260503185109 63 257 0.0 13.0 0.00 0.00 0.00 46 1015.5
20260503184604 62 233 5.0 8.0 0.00 0.00 0.00 40 1015.6
20260503184101 63 9 4.0 4.0 0.00 0.00 0.00 41 1015.6
20260503183558 63 55 5.0 9.0 0.00 0.00 0.00 39 1016.0
20260503183055 62 231 3.0 11.0 0.00 0.00 0.00 39 1015.6
20260503182553 62 337 1.0 12.0 0.00 0.00 0.00 43 1016.0
20260503182051 64 180 4.0 5.0 0.00 0.00 0.00 43 1016.0
20260503181548 63 185 0.0 6.0 0.00 0.00 0.00 39 1016.0
20260503181044 62 183 5.0 7.0 0.00 0.00 0.00 38 1016.0
20260503180541 63 255 2.0 11.0 0.00 0.00 0.00 44 1016.2
20260503180039 62 174 3.0 7.0 0.00 0.00 0.00 39 1016.2
20260503175536 62 35 1.0 9.0 0.00 0.00 0.00 43 1016.4
20260503175033 62 216 2.0 9.0 0.00 0.00 0.00 42 1016.2
20260503174530 61 131 4.0 11.0 0.00 0.00 0.00 37 1016.4
20260503174026 61 192 2.0 7.0 0.00 0.00 0.00 41 1016.3
20260503173521 61 90 0.0 5.0 0.00 0.00 0.00 39 1016.6
20260503173018 60 187 1.0 4.0 0.00 0.00 0.00 42 1016.8
20260503172516 60 183 7.0 11.0 0.00 0.00 0.00 39 1016.7
20260503172013 60 179 6.0 11.0 0.00 0.00 0.00 38 1016.8
20260503171509 61 270 0.0 6.0 0.00 0.00 0.00 42 1016.9
20260503171007 60 210 6.0 12.0 0.00 0.00 0.00 39 1017.3
20260503170503 60 84 2.0 5.0 0.00 0.00 0.00 38 1017.1
20260503150855 58 341 3.0 3.0 0.00 0.00 0.00 45 1018.3
20260503150351 58 312 2.0 4.0 0.00 0.00 0.00 49 1018.2
20260503131245 47 35 1.0 5.0 0.00 0.00 0.00 74 1018.5
20260503130743 46 90 1.0 2.0 0.00 0.00 0.00 77 1018.5
20260503130240 46 15 0.0 3.0 0.00 0.00 0.00 77 1018.4
20260503120206 37 85 2.0 2.0 0.00 0.00 0.00 99 1017.9
20260503110633 34 78 1.0 2.0 0.00 0.00 0.00 98 1017.7
20260503110130 34 85 2.0 2.0 0.00 0.00 0.00 98 1017.4
20260503081440 33 90 1.0 2.0 0.00 0.00 0.00 97 1017.0
20260503080938 33 95 2.0 2.0 0.00 0.00 0.00 96 1017.0
20260503080434 33 90 2.0 2.0 0.00 0.00 0.00 96 1017.1
20260503072909 33 90 1.0 2.0 0.00 0.00 0.00 96 1016.9
20260503072402 34 85 2.0 2.0 0.00 0.00 0.00 96 1017.1
20260503071858 34 85 2.0 2.0 0.00 0.00 0.00 95 1016.8
20260503071356 34 81 2.0 2.0 0.00 0.00 0.00 95 1017.0
20260503070851 34 96 2.0 2.0 0.00 0.00 0.00 95 1017.1
20260503070349 34 90 1.0 2.0 0.00 0.00 0.00 95 1017.0
20260503060309 35 84 2.0 2.0 0.00 0.00 0.00 94 1017.3
20260503054756 35 85 2.0 2.0 0.00 0.00 0.00 94 1017.3
20260503054252 35 90 2.0 2.0 0.00 0.00 0.00 94 1017.4
20260503053749 35 85 0.0 2.0 0.00 0.00 0.00 94 1017.2
20260503053243 36 90 2.0 2.0 0.00 0.00 0.00 93 1017.4
20260503052738 36 68 2.0 2.0 0.00 0.00 0.00 93 1017.4
20260503052236 36 85 2.0 2.0 0.00 0.00 0.00 93 1017.4
20260503051730 36 79 2.0 2.0 0.00 0.00 0.00 92 1017.3
20260503051229 36 74 2.0 2.0 0.00 0.00 0.00 92 1017.3
20260503050725 36 83 1.0 2.0 0.00 0.00 0.00 92 1017.4
20260503050221 36 90 1.0 2.0 0.00 0.00 0.00 91 1017.3
20260503045719 36 74 2.0 2.0 0.00 0.00 0.00 91 1017.4
20260503045216 37 85 2.0 3.0 0.00 0.00 0.00 91 1017.2
20260503044713 37 90 2.0 3.0 0.00 0.00 0.00 91 1017.6
20260503044210 37 78 1.0 2.0 0.00 0.00 0.00 90 1017.4
20260503043707 38 75 1.0 2.0 0.00 0.00 0.00 89 1017.4
20260503043205 38 90 1.0 2.0 0.00 0.00 0.00 88 1017.4
20260503042700 38 90 1.0 2.0 0.00 0.00 0.00 86 1017.2
20260503042157 38 96 2.0 2.0 0.00 0.00 0.00 86 1017.5
20260503041653 38 114 1.0 2.0 0.00 0.00 0.00 87 1017.2
20260503041151 38 84 1.0 2.0 0.00 0.00 0.00 88 1017.2
20260503040648 38 90 1.0 2.0 0.00 0.00 0.00 88 1017.1
20260503040146 38 95 2.0 2.0 0.00 0.00 0.00 87 1017.3
20260503035642 38 90 2.0 2.0 0.00 0.00 0.00 87 1017.1
20260503035140 39 90 2.0 2.0 0.00 0.00 0.00 87 1017.4
20260503034637 39 90 2.0 2.0 0.00 0.00 0.00 87 1017.2
20260503034134 39 90 2.0 2.0 0.00 0.00 0.00 86 1017.1
20260503033631 40 90 2.0 2.0 0.00 0.00 0.00 84 1017.3
20260503033129 40 90 1.0 2.0 0.00 0.00 0.00 83 1017.1
20260503032627 40 121 2.0 2.0 0.00 0.00 0.00 84 1017.0
20260503032125 40 83 1.0 2.0 0.00 0.00 0.00 84 1017.2
20260503031622 40 90 1.0 2.0 0.00 0.00 0.00 83 1017.3
20260503031120 41 105 1.0 2.0 0.00 0.00 0.00 83 1017.1
20260503030615 41 83 1.0 2.0 0.00 0.00 0.00 83 1017.2
20260503030112 41 90 1.0 2.0 0.00 0.00 0.00 83 1017.4
20260503025609 41 96 1.0 2.0 0.00 0.00 0.00 83 1017.1
20260503025107 41 90 1.0 2.0 0.00 0.00 0.00 82 1017.0
20260503024603 42 90 2.0 2.0 0.00 0.00 0.00 82 1017.0
20260503024100 42 90 1.0 2.0 0.00 0.00 0.00 80 1017.0
20260503023557 42 90 0.0 2.0 0.00 0.00 0.00 79 1016.8
20260503023054 42 90 2.0 2.0 0.00 0.00 0.00 79 1016.8
20260503022550 42 90 2.0 2.0 0.00 0.00 0.00 80 1016.7
20260503022045 42 84 1.0 2.0 0.00 0.00 0.00 79 1016.8
20260503021542 43 90 2.0 2.0 0.00 0.00 0.00 79 1016.6
20260503021039 43 95 2.0 2.0 0.00 0.00 0.00 79 1016.7
20260503020536 43 95 2.0 2.0 0.00 0.00 0.00 77 1016.4
20260503020033 43 103 2.0 2.0 0.00 0.00 0.00 80 1016.3
20260503015530 44 90 2.0 2.0 0.00 0.00 0.00 79 1016.4
20260503015027 44 78 1.0 2.0 0.00 0.00 0.00 78 1016.4
20260503014523 44 84 2.0 2.0 0.00 0.00 0.00 77 1016.3
20260503014021 44 98 2.0 2.0 0.00 0.00 0.00 77 1016.3
20260503013518 44 90 2.0 2.0 0.00 0.00 0.00 75 1016.2
20260503013016 44 95 2.0 2.0 0.00 0.00 0.00 78 1016.0
20260503012513 45 68 2.0 2.0 0.00 0.00 0.00 78 1016.1
20260503012009 45 90 1.0 3.0 0.00 0.00 0.00 75 1015.9
20260503011506 46 90 1.0 2.0 0.00 0.00 0.00 76 1015.6
20260503011004 46 80 2.0 2.0 0.00 0.00 0.00 74 1015.7
20260503010459 46 84 1.0 2.0 0.00 0.00 0.00 72 1015.6
20260503005957 47 90 1.0 2.0 0.00 0.00 0.00 75 1015.7
20260503005454 48 69 1.0 2.0 0.00 0.00 0.00 72 1015.4
20260503004951 48 94 2.0 2.0 0.00 0.00 0.00 75 1015.3
20260503004447 48 80 2.0 2.0 0.00 0.00 0.00 74 1015.5
20260503003945 49 69 1.0 2.0 0.00 0.00 0.00 73 1015.0
20260503003442 49 75 1.0 2.0 0.00 0.00 0.00 70 1015.3
20260503002939 49 77 1.0 2.0 0.00 0.00 0.00 65 1015.4
20260503002436 49 83 1.0 2.0 0.00 0.00 0.00 64 1015.1
20260503001932 50 90 2.0 2.0 0.00 0.00 0.00 67 1015.1
20260503001429 50 126 0.0 2.0 0.00 0.00 0.00 66 1015.4
20260503000927 50 84 2.0 2.0 0.00 0.00 0.00 65 1015.0
20260503000423 50 78 1.0 2.0 0.00 0.00 0.00 64 1015.1
20260502235920 50 103 1.0 2.0 0.00 0.00 0.00 65 1014.7
20260502235417 51 45 2.0 2.0 0.00 0.00 0.00 60 1014.7
20260502234914 51 74 0.0 3.0 0.00 0.00 0.00 61 1014.9
20260502234410 51 117 0.0 1.0 0.00 0.00 0.00 61 1014.9
20260502233908 51 81 0.0 2.0 0.00 0.00 0.00 63 1014.8
20260502233357 51 90 1.0 1.0 0.00 0.00 0.00 60 1014.8
20260502232855 51 75 0.0 1.0 0.00 0.00 0.00 64 1014.8
20260502232351 51 74 1.0 2.0 0.00 0.00 0.00 63 1014.8
20260502231848 51 74 1.0 1.0 0.00 0.00 0.00 63 1014.9
20260502231346 51 69 1.0 2.0 0.00 0.00 0.00 61 1014.8
20260502230844 52 99 0.0 2.0 0.00 0.00 0.00 64 1014.8
20260502230341 52 63 0.0 2.0 0.00 0.00 0.00 59 1014.8
20260502225837 53 12 2.0 4.0 0.00 0.00 0.00 58 1014.9
20260502225329 54 45 3.0 3.0 0.00 0.00 0.00 57 1014.8
20260502224826 54 254 0.0 1.0 0.00 0.00 0.00 55 1014.8
20260502224322 54 23 0.0 0.0 0.00 0.00 0.00 57 1014.7
20260502223820 53 139 0.0 3.0 0.00 0.00 0.00 57 1015.0
20260502223318 53 41 2.0 2.0 0.00 0.00 0.00 60 1015.0
20260502222815 53 98 0.0 2.0 0.00 0.00 0.00 63 1014.7
20260502222312 53 105 2.0 2.0 0.00 0.00 0.00 61 1014.9
20260502221808 53 77 0.0 3.0 0.00 0.00 0.00 63 1014.7
20260502221304 53 90 0.0 2.0 0.00 0.00 0.00 61 1014.9
20260502220802 53 32 1.0 1.0 0.00 0.00 0.00 59 1014.4
20260502220257 53 151 0.0 1.0 0.00 0.00 0.00 57 1014.7
20260502215754 53 74 0.0 3.0 0.00 0.00 0.00 57 1014.9
20260502215251 53 106 0.0 0.0 0.00 0.00 0.00 57 1014.9
20260502214748 53 90 0.0 2.0 0.00 0.00 0.00 60 1014.9
20260502214245 53 71 1.0 2.0 0.00 0.00 0.00 57 1014.7
20260502213742 53 70 0.0 2.0 0.00 0.00 0.00 59 1014.9
20260502213240 53 22 0.0 3.0 0.00 0.00 0.00 58 1014.9
20260502212739 53 14 2.0 3.0 0.00 0.00 0.00 63 1014.9
20260502212236 53 63 0.0 0.0 0.00 0.00 0.00 58 1014.9
20260502211732 53 203 0.0 1.0 0.00 0.00 0.00 56 1014.8
20260502211229 53 52 2.0 3.0 0.00 0.00 0.00 59 1014.8
20260502210726 53 48 2.0 3.0 0.00 0.00 0.00 65 1014.9
20260502210223 52 60 0.0 2.0 0.00 0.00 0.00 60 1014.8
20260502205721 52 74 0.0 2.0 0.00 0.00 0.00 59 1014.8
20260502205217 52 61 2.0 2.0 0.00 0.00 0.00 60 1014.8
20260502204714 52 71 2.0 3.0 0.00 0.00 0.00 61 1014.9
20260502204211 52 70 2.0 2.0 0.00 0.00 0.00 57 1015.0